Location: Bieujac
(44.5398°N, 0.1549°W)
Time: 15:33:28
(UTC+00:00)

H-2A R/B - Pass Details

Date: 17 November 2019
Orbit: 530 x 652 km, 98.3° (Epoch: 06 December)

Event Time Altitude Azimuth Distance (km) Brightness Sun altitude
Rises 05:08:02 0° 4° (N) 2,984 6.0 -19.7°
Reaches altitude 10° 05:10:27 10° 354° (N) 2,070 5.1 -19.3°
Enters shadow 05:12:40 23° 332° (NNW) 1,381 4.0 -18.9°
